{"data":{"norad_id":54159,"intl_designator":"2022-141C","name":"STARLINK-5294","alt_names":[],"object_type":"PAYLOAD","status":"ACTIVE","operator":null,"country":"US","launch_date":"2022-10-28","launch_site_code":"AFWTR","launch_vehicle":null,"mission":null,"orbit_class":"UNKNOWN","rcs_meters":null,"size_class":null,"mass_kg":null,"dimensions":null,"purposes":["comms"],"wikipedia_slug":null,"has_3d_model":false,"image_url":null,"decayed_at":null,"tle_current":{"epoch":"2026-09-20T22:00:03.000096Z","epoch_age_seconds":53877,"freshness":"FRESH","line1":"1 54159U 22141C   26263.91670139 -.00000363  00000+0  29851-6 0  9992","line2":"2 54159  53.1681 215.5802 0001465  91.1488 175.2199 15.33543297  5708","mean_motion":15.33543297,"eccentricity":0.0001465,"inclination_deg":53.1681,"raan_deg":215.5802,"arg_perigee_deg":91.1488,"mean_anomaly_deg":175.2199,"bstar":2.9851e-7,"rev_number":570,"period_min":93.900185460496,"perigee_km":464.24817108389,"apogee_km":466.25328368802,"semimajor_km":6843.387727386,"source":"CELESTRAK","updated_at":"2026-09-21T09:00:33.087363Z"}}}